Regional Weather Roundup
Issued by NWS State College, PA

Home | Current Version | Previous Version | Graphics & Text | Print | Product List | Glossary On
Versions: 1 2 3 4 5 6 7 8 9 10 11 12 13 14 15 16 17 18 19 20 21 22 23 24 25 26 27 28 29 30 31 32 33 34 35 36 37 38 39 40 41 42 43 44 45 46 47 48 49 50
000
ASUS41 KCTP 200910
RWRCTP

REGIONAL WEATHER ROUNDUP
NATIONAL WEATHER SERVICE STATE COLLEGE PA
500 AM EDT SAT SEP 20 2014

Note: "fair" indicates few or no clouds below 12,000 feet with no
significant weather and/or obstructions to visibility.

* = STATION THAT DOES NOT REPORT PRECIPITATION /E.G. RAIN...SNOW...ETC/
    THUNDER OR FOG.

PAZ002>004-007>009-013>016-020>023-029>032-201000-
WESTERN PENNSYLVANIA

CITY           SKY/WX    TMP DP  RH WIND       PRES   REMARKS
ERIE           PTCLDY    62  54  74 S18G25    30.05F
MEADVILLE      PTCLDY    58  53  84 VRB6      30.10F
FRANKLIN*      MOCLDY    57  52  82 S12       30.14S
NEW CASTLE     NOT AVBL
BEAVER COUNTY  NOT AVBL
BUTLER*        PTCLDY    57  52  82 SE5       30.15S
PITTSBURGH INT PTCLDY    58  54  86 SE3       30.13S
PITTSBURGH     PTCLDY    59  52  77 S9        30.13F
INDIANA*       MOCLDY    61  55  82 S10G17    30.20S
LATROBE        CLEAR     63  55  77 S8        30.16S
WASHINGTON CO* PTCLDY    55  52  88 CALM      30.14F
$$

PAZ004>006-010>012-017>019-024>028-033>037-041-042-045-046-049>053-201000-
CENTRAL PENNSYLVANIA

CITY           SKY/WX    TMP DP  RH WIND       PRES   REMARKS
BRADFORD       MOCLDY    57  53  86 VRB7      30.16F
DUBOIS         MOCLDY    57  54  89 SE6       30.16F
CLEARFIELD     MOCLDY    55  54  96 CALM      30.20S
JOHNSTOWN      PTCLDY    57  53  86 S10       30.21S
ALTOONA        CLOUDY    61  57  87 S7        30.23S
STATE COLLEGE  CLOUDY    62  56  82 S7        30.22F
WILLIAMSPORT   CLOUDY    61  54  77 S17G25    30.21F
SELINSGROVE    CLOUDY    62  56  80 VRB6      30.25F
FT INDIANTOWN  CLOUDY    58  58  99 VRB2      30.28F
CAPITAL CITY   CLOUDY    60  55  83 E6        30.27S
HARRISBURG     CLOUDY    60  55  83 E6        30.26F
YORK           MOCLDY    58  56  93 E5        30.26S
$$

PAZ038>040-043-044-047-048-054-055-060>062-067>071-201000-
EASTERN PENNSYLVANIA

CITY           SKY/WX    TMP DP  RH WIND       PRES   REMARKS
SCRANTON       CLOUDY    58  52  80 N6        30.27S
MOUNT POCONO   CLOUDY    52  50  93 E5        30.29F FOG
ALLENTOWN      CLOUDY    59  52  77 E3        30.30S
QUAKERTOWN*    CLOUDY    55  54  94 CALM      30.32S
READING        CLOUDY    59  53  80 SW3       30.28F
LANCASTER      CLOUDY    56  54  93 CALM      30.28S FOG
COATESVILLE    PTSUNNY   55  55 100 CALM      30.30S
POTTSTOWN      CLOUDY    55  53  93 E3        30.31S
BLUE BELL      MOCLDY    54  52  94 CALM      30.29S
DOYLESTOWN     CLOUDY    53  52  96 N3        30.31R
WILLOW GROVE   NOT AVBL
NORTH PHILA    CLOUDY    55  50  83 CALM      30.32R
PHILADELPHIA   CLOUDY    60  55  83 NE3       30.30S
$$


USA.gov is the U.S. government's official web portal to all federal, state and local government web resources and services.